Wind_Speed
55 53 53 52 44 39 34 30 27 25 24 28 49 76 93 99 88 85 88 85 90 91 92 98 97 95 94 97 97 92 89 90 92 94 94 93 87 87 85 86 84 82 82
54 50 51 52 47 43 40 37 35 34 34 35 37 40 44 47 51 56 60 63 62 63 66 71 78 88 92 100 103 101 94 88 82 84 92 94 91 92 93 89 85 82 90
54 50 50 51 50 48 45 44 44 42 42 43 44 46 49 52 55 58 61 63 64 65 67 67 68 70 70 72 74 75 76 72 69 67 67 72 75 83 83 83 84 89 83
55 52 50 49 47 48 49 49 50 50 50 52 53 51 50 51 53 56 59 61 62 64 66 68 70 70 71 73 72 69 69 67 63 60 61 64 63 62 61 65 66 69 70
57 55 52 51 48 50 52 54 55 55 56 55 54 51 50 53 57 61 64 66 68 71 74 78 79 78 79 80 78 76 75 73 69 61 56 58 59 58 54 56 58 56 55
58 56 53 53 51 51 50 51 50 52 52 51 50 52 56 61 65 69 72 74 77 81 83 87 88 86 85 85 84 81 79 77 71 67 64 63 62 58 51 50 51 48 46
59 56 54 53 53 49 48 48 49 47 48 49 53 57 61 64 69 75 80 83 86 87 86 87 88 88 88 86 88 88 87 83 76 67 64 64 65 64 59 51 47 41 42
61 58 56 56 53 46 46 47 43 44 45 51 55 59 64 73 77 78 83 87 86 91 92 92 92 95 96 94 94 93 89 86 81 73 65 62 62 63 55 46 41 36 36
66 62 63 53 42 43 44 41 41 43 48 52 56 65 74 79 81 85 89 88 76 72 72 72 74 78 81 84 86 91 85 83 85 79 69 58 59 59 45 38 38 38 40
47 45 42 37 40 41 37 37 40 44 47 54 61 67 77 81 83 69 59 49 49 51 53 58 64 65 64 64 61 62 66 71 73 77 67 61 63 60 49 44 36 36 41
35 33 33 34 36 33 32 35 38 42 46 52 58 68 74 79 68 63 48 39 36 35 36 40 42 44 46 48 48 49 55 58 63 65 64 68 65 61 50 42 38 32 38
26 28 29 29 29 28 32 31 34 38 44 51 59 64 70 63 61 54 40 34 30 28 25 24 25 27 29 32 34 37 40 42 46 51 61 67 72 64 55 46 51 49 46
24 26 26 26 27 28 28 27 32 38 43 50 55 62 59 53 39 31 29 24 22 19 18 16 16 15 15 18 21 23 28 34 38 43 52 62 67 68 59 52 55 61 53
26 26 26 27 27 25 26 27 32 38 42 49 52 57 49 41 31 27 24 22 20 17 13 9 6 5 7 9 13 18 23 26 30 35 43 55 64 60 55 51 53 61 64
28 26 28 29 26 27 27 28 32 37 41 46 49 51 47 31 25 22 19 19 20 18 17 13 6 6 3 7 13 18 21 25 31 34 37 46 53 54 54 55 56 65 65
28 29 30 30 27 28 28 30 32 34 37 42 48 48 40 28 19 22 18 17 22 23 22 15 14 15 15 16 18 21 25 27 30 33 43 48 50 52 55 54 59 69 61
32 32 32 30 28 27 30 32 32 31 33 37 41 43 40 25 17 18 8 15 19 21 21 22 16 17 22 25 27 28 26 25 27 26 30 43 49 56 58 59 66 68 68
32 35 33 34 30 29 33 34 31 30 30 33 35 39 39 32 23 13 3 5 11 15 19 26 24 17 20 29 26 30 32 29 32 34 33 35 41 48 55 53 64 66 58
35 37 37 36 37 36 36 34 34 32 30 30 29 31 33 36 24 16 7 7 3 8 14 23 26 28 28 34 36 36 39 36 35 43 41 43 45 48 54 54 56 57 54
39 40 40 41 44 42 40 38 38 37 33 29 29 26 26 26 29 19 7 5 2 8 10 15 25 28 25 34 38 45 43 42 43 46 46 45 43 46 50 55 58 61 56
40 45 46 46 47 48 47 47 43 41 37 33 30 25 24 22 22 24 11 5 6 8 19 20 30 30 30 35 42 45 45 49 51 47 45 41 40 40 46 49 49 61 51
34 39 43 46 49 51 50 50 50 47 42 38 34 30 24 22 21 18 18 12 8 12 20 23 24 33 29 39 39 43 44 46 48 47 44 43 42 38 40 43 46 53 47
41 43 46 49 51 53 54 54 54 51 49 47 40 36 31 25 21 21 14 14 12 20 26 25 31 33 42 45 43 46 42 44 49 50 41 42 43 48 49 51 52 52 52
42 44 45 45 47 52 56 57 56 55 54 53 48 44 37 34 27 22 20 15 12 19 28 31 38 36 47 39 43 48 45 48 49 55 52 51 50 50 51 52 53 56 53
44 44 45 45 47 47 48 51 53 54 53 52 51 49 46 40 36 31 26 22 18 15 25 34 41 49 46 43 43 47 54 54 51 52 55 57 55 57 58 59 58 60 60
48 49 50 50 50 49 49 49 50 53 55 55 53 51 49 45 40 35 33 30 25 23 20 28 41 50 56 51 50 49 44 48 56 56 52 49 56 64 64 63 63 65 66
Wind_Direction
274 281 279 278 282 286 291 294 297 297 293 278 258 254 252 256 259 258 262 268 264 262 261 261 261 261 261 260 262 265 263 265 263 261 261 259 256 258 255 253 253 243 241
270 275 275 273 277 280 281 284 286 288 287 287 284 281 276 271 266 263 261 263 262 261 261 262 260 260 261 257 260 262 261 265 264 261 258 257 255 256 255 253 253 247 242
269 274 273 274 274 276 279 281 282 283 284 284 283 284 279 275 273 270 269 268 268 267 265 264 262 260 260 258 259 259 259 259 259 260 259 257 255 255 257 258 257 252 249
268 270 272 273 277 277 277 279 282 284 286 291 292 289 280 273 268 267 268 267 267 267 266 265 262 261 260 259 258 258 259 260 258 256 259 260 259 257 257 259 255 254 254
268 269 270 273 279 279 280 280 282 286 290 291 289 284 277 271 267 268 269 268 269 268 267 264 263 262 262 262 262 260 258 258 258 254 251 254 257 258 254 254 258 259 258
266 267 268 270 280 281 282 284 286 287 287 286 282 279 276 276 276 276 276 275 274 272 270 268 265 265 266 266 266 264 262 261 260 258 254 253 253 255 254 250 253 257 257
265 265 267 271 280 279 280 284 288 287 284 283 280 280 283 285 286 284 282 281 280 279 277 274 271 268 265 263 262 262 262 261 258 253 249 249 249 252 251 251 249 248 246
263 265 268 274 278 275 279 286 286 284 286 285 288 290 292 290 288 290 290 288 287 283 277 273 269 268 266 263 259 257 255 255 256 253 245 242 241 245 249 246 245 245 238
261 263 268 271 269 273 279 281 280 286 290 295 298 297 294 296 299 299 296 292 286 281 277 273 269 266 263 260 258 256 255 250 248 248 246 241 239 244 247 236 236 237 230
261 259 256 258 266 273 277 278 284 295 300 300 298 299 302 304 306 306 302 290 284 278 272 267 264 263 262 262 259 253 248 243 237 237 235 233 239 242 241 234 231 225 223
251 248 249 257 265 271 274 283 296 299 300 301 307 308 310 312 313 318 313 305 296 287 276 268 265 261 259 258 255 249 244 241 237 228 220 229 234 237 230 226 211 219 223
241 243 248 255 266 269 278 290 297 303 308 316 315 318 317 319 318 320 316 312 310 304 292 279 271 265 258 251 248 244 239 237 233 228 217 219 229 230 225 216 199 201 210
238 242 247 261 260 270 281 291 302 310 320 323 323 325 326 321 321 328 331 332 329 324 314 297 280 263 250 245 237 227 219 217 219 218 212 210 213 220 217 213 205 208 206
238 244 256 252 259 269 281 291 304 315 324 330 332 332 332 324 340 349 350 359 359 355 352 330 311 283 247 221 212 205 200 202 204 202 202 203 204 202 206 208 203 202 195
239 249 247 251 260 271 278 290 303 317 328 331 339 342 334 343 348 355 6 15 19 32 37 25 20 71 138 169 178 174 180 186 184 180 185 193 194 192 194 198 198 195 193
244 241 245 257 261 269 280 292 303 315 329 333 341 347 341 344 12 351 4 58 62 56 53 57 78 91 116 131 143 154 164 174 183 190 180 179 185 187 190 191 190 188 188
241 239 247 253 266 271 282 291 301 313 325 333 343 352 352 346 10 347 34 81 80 79 73 65 75 99 113 118 122 127 135 160 171 172 182 187 191 191 190 190 185 185 187
246 242 250 258 268 276 283 289 295 306 319 330 343 350 357 349 343 5 350 108 102 92 103 99 92 103 112 111 119 129 125 137 151 149 157 166 173 180 185 186 181 187 192
245 246 253 261 271 279 281 285 292 295 308 320 331 346 353 357 349 331 343 293 173 137 116 121 119 115 122 123 124 126 126 130 138 138 142 147 154 165 172 176 182 182 184
248 252 257 263 270 276 280 285 285 290 297 307 319 331 347 352 355 345 332 156 123 156 161 171 142 141 136 135 133 134 129 134 138 137 137 141 154 166 174 179 180 179 186
256 258 261 265 269 274 277 280 283 285 289 294 303 311 325 339 348 350 329 183 188 217 173 156 154 163 155 145 143 140 144 148 149 153 157 162 170 175 178 179 184 184 189
268 268 269 272 272 272 273 275 277 279 281 283 291 295 302 312 322 335 338 299 222 209 201 169 161 171 165 158 155 156 158 166 164 166 167 170 174 183 187 183 183 190 194
276 274 272 271 271 272 273 272 272 273 274 276 281 284 285 289 292 302 311 321 258 201 206 210 173 173 169 172 174 172 172 171 177 174 176 181 187 186 186 193 197 194 200
275 276 275 275 274 271 270 270 269 269 269 271 274 275 275 277 277 279 281 283 285 238 213 205 189 184 186 187 190 186 186 183 185 184 189 193 198 198 199 201 203 206 210
278 279 278 278 276 276 275 272 271 271 270 268 269 271 270 270 270 265 262 262 261 259 231 207 199 190 187 192 201 203 197 191 197 190 196 199 198 203 209 213 213 216 219
279 281 281 281 278 278 276 276 275 272 271 270 268 268 269 269 264 261 254 249 250 245 243 227 208 204 203 201 200 196 200 204 208 205 208 212 205 212 212 214 219 222 226
Height
10628 10624 10621 10618 10615 10611 10607 10604 10600 10597 10595 10596 10600 10605 10609 10611 10608 10608 10609 10609 10610 10610 10610 10612 10614 10613 10616 10618 10619 10624 10630 10635 10644 10647 10650 10656 10662 10666 10679 10689 10696 10703 10713
10615 10612 10610 10607 10606 10604 10600 10598 10595 10593 10591 10590 10590 10589 10588 10587 10588 10588 10588 10588 10585 10585 10584 10583 10585 10585 10589 10592 10595 10601 10605 10608 10611 10617 10623 10630 10636 10640 10650 10662 10670 10678 10688
10601 10600 10599 10596 10596 10594 10592 10589 10587 10586 10583 10581 10580 10578 10575 10573 10570 10568 10567 10565 10563 10563 10562 10563 10564 10564 10566 10567 10570 10574 10580 10586 10592 10596 10601 10604 10612 10619 10629 10637 10647 10654 10663
10588 10589 10588 10586 10584 10583 10582 10581 10579 10576 10574 10570 10568 10565 10562 10559 10555 10552 10549 10546 10544 10542 10540 10539 10540 10540 10541 10542 10546 10552 10556 10564 10572 10579 10584 10587 10593 10601 10611 10616 10626 10633 10643
10575 10576 10576 10574 10573 10572 10571 10569 10567 10564 10561 10558 10554 10549 10546 10542 10538 10534 10530 10529 10526 10523 10520 10517 10516 10516 10517 10519 10523 10530 10534 10541 10548 10561 10568 10572 10578 10584 10596 10599 10608 10617 10626
10561 10563 10563 10563 10562 10561 10559 10557 10555 10553 10548 10544 10540 10536 10531 10525 10519 10515 10510 10506 10501 10497 10493 10490 10490 10491 10493 10494 10499 10505 10511 10517 10527 10541 10551 10559 10564 10569 10579 10587 10595 10605 10611
10547 10549 10551 10552 10552 10551 10549 10547 10545 10540 10536 10532 10526 10520 10514 10508 10501 10493 10485 10480 10473 10467 10463 10460 10459 10459 10461 10467 10470 10474 10480 10490 10502 10517 10531 10541 10547 10552 10561 10574 10586 10593 10597
10534 10536 10539 10540 10541 10540 10539 10537 10534 10529 10524 10518 10512 10505 10497 10486 10475 10467 10459 10447 10439 10432 10427 10424 10423 10422 10423 10429 10432 10439 10451 10462 10476 10491 10508 10520 10530 10534 10549 10564 10572 10580 10588
10520 10524 10527 10529 10530 10530 10529 10528 10523 10519 10513 10507 10500 10490 10476 10462 10452 10439 10425 10411 10398 10390 10386 10383 10384 10384 10383 10387 10396 10404 10413 10428 10446 10465 10482 10499 10512 10523 10539 10550 10559 10568 10575
10504 10510 10514 10518 10520 10520 10520 10517 10514 10510 10504 10496 10486 10473 10458 10440 10426 10407 10392 10380 10372 10364 10359 10358 10358 10357 10358 10361 10367 10375 10386 10397 10412 10431 10457 10476 10493 10509 10523 10535 10546 10555 10564
10495 10500 10506 10509 10510 10512 10510 10509 10505 10501 10494 10484 10474 10459 10441 10422 10402 10387 10374 10363 10355 10349 10345 10342 10340 10340 10340 10343 10347 10355 10363 10373 10389 10408 10431 10452 10473 10494 10508 10524 10534 10542 10552
10488 10493 10497 10500 10502 10503 10502 10501 10498 10492 10483 10473 10460 10444 10426 10406 10389 10376 10365 10355 10346 10340 10335 10332 10330 10329 10329 10331 10335 10341 10350 10362 10375 10390 10408 10429 10456 10477 10491 10508 10519 10524 10538
10482 10486 10490 10493 10494 10495 10495 10493 10489 10483 10475 10463 10448 10431 10413 10398 10385 10373 10361 10350 10342 10336 10330 10327 10325 10324 10324 10325 10328 10334 10341 10349 10360 10374 10391 10411 10435 10457 10472 10491 10505 10517 10531
10476 10480 10483 10485 10487 10488 10487 10485 10481 10475 10466 10454 10439 10423 10408 10395 10383 10371 10361 10352 10343 10336 10331 10326 10323 10322 10322 10323 10326 10330 10338 10347 10357 10369 10383 10400 10419 10444 10463 10481 10492 10507 10518
10470 10473 10475 10477 10479 10481 10479 10477 10473 10468 10459 10448 10434 10421 10405 10395 10386 10376 10366 10358 10350 10342 10335 10332 10328 10326 10326 10327 10330 10333 10340 10347 10355 10366 10381 10398 10417 10436 10453 10468 10481 10496 10511
10462 10465 10467 10470 10472 10473 10472 10468 10465 10461 10454 10444 10432 10419 10407 10397 10391 10381 10373 10365 10357 10351 10346 10341 10336 10332 10332 10332 10335 10339 10344 10351 10360 10371 10381 10397 10414 10431 10446 10459 10473 10489 10503
10454 10457 10460 10462 10464 10465 10463 10460 10457 10455 10449 10442 10431 10420 10407 10399 10393 10388 10382 10373 10366 10360 10355 10352 10348 10344 10342 10342 10343 10346 10352 10358 10365 10372 10387 10398 10410 10423 10439 10454 10469 10484 10497
10448 10450 10452 10453 10455 10456 10455 10453 10450 10448 10445 10438 10430 10421 10411 10401 10394 10390 10388 10382 10375 10369 10365 10362 10361 10358 10356 10355 10357 10358 10361 10368 10373 10380 10389 10398 10409 10423 10440 10456 10471 10485 10495
10440 10442 10444 10445 10445 10445 10445 10444 10442 10440 10438 10434 10429 10422 10413 10404 10396 10391 10389 10387 10382 10377 10375 10372 10371 10371 10371 10369 10370 10373 10373 10380 10385 10391 10399 10409 10420 10434 10447 10460 10472 10482 10495
10431 10433 10435 10435 10435 10434 10434 10434 10433 10432 10430 10428 10425 10420 10415 10408 10401 10394 10389 10388 10385 10383 10382 10379 10379 10378 10378 10379 10380 10382 10386 10391 10398 10403 10412 10419 10430 10439 10449 10459 10468 10478 10489
10423 10424 10425 10425 10425 10424 10423 10422 10421 10421 10421 10420 10417 10415 10410 10407 10403 10399 10393 10389 10387 10384 10384 10384 10384 10384 10384 10386 10389 10393 10397 10401 10405 10413 10417 10425 10434 10442 10449 10456 10466 10478 10488
10414 10413 10413 10412 10412 10411 10410 10409 10408 10409 10409 10409 10409 10407 10406 10403 10400 10398 10395 10391 10389 10387 10386 10385 10388 10389 10391 10394 10398 10396 10398 10405 10411 10415 10420 10426 10435 10446 10452 10459 10465 10472 10480
10402 10401 10400 10398 10396 10395 10395 10395 10394 10394 10395 10395 10397 10397 10396 10396 10395 10393 10392 10391 10388 10386 10386 10388 10386 10388 10392 10395 10393 10396 10401 10406 10414 10420 10425 10430 10435 10440 10445 10454 10462 10465 10472
10389 10388 10386 10383 10380 10379 10378 10377 10378 10378 10379 10380 10381 10383 10386 10385 10385 10386 10384 10384 10386 10383 10382 10384 10385 10387 10390 10392 10396 10400 10400 10405 10412 10416 10423 10427 10432 10439 10444 10449 10453 10457 10464
10376 10374 10372 10369 10367 10364 10363 10361 10360 10360 10361 10364 10365 10366 10368 10372 10372 10373 10375 10375 10376 10378 10376 10376 10378 10382 10384 10387 10393 10396 10400 10404 10408 10412 10419 10424 10428 10433 10439 10444 10448 10454 10456
10362 10359 10356 10354 10352 10350 10348 10346 10344 10343 10343 10344 10346 10349 10350 10352 10356 10358 10360 10363 10364 10366 10369 10370 10370 10372 10375 10378 10382 10388 10393 10396 10401 10406 10411 10418 10422 10427 10430 10434 10438 10443 10448